This is the latest recevied weather packets stored in our database for station/object NK7E-2. If no packets are shown the sender has not sent any weather packets the latest 10 day(s).
| Time | Temp. | Humidity | Pressure | Rain* | Wind** | Luminosity | Snow |
|---|---|---|---|---|---|---|---|
| 1777677917 | 26.67° C | 18% | 1017.8 hPa | 0 mm | - | - | - |
| 1777677317 | 27.22° C | 18% | 1017.9 hPa | 0 mm | - | - | - |
| 1777676718 | 27.22° C | 18% | 1018 hPa | 0 mm | - | - | - |
| 1777676117 | 27.78° C | 19% | 1018.2 hPa | 0 mm | - | - | - |
| 1777675518 | 27.78° C | 19% | 1018.3 hPa | 0 mm | - | - | - |
| 1777674917 | 27.22° C | 20% | 1018.5 hPa | 0 mm | - | - | - |
| 1777674321 | 27.22° C | 20% | 1018.4 hPa | 0 mm | - | - | - |
| 1777673717 | 27.22° C | 20% | 1018.5 hPa | 0 mm | - | - | - |
| 1777673117 | 27.22° C | 19% | 1018.9 hPa | 0 mm | - | - | - |
| 1777672517 | 27.22° C | 19% | 1018.9 hPa | 0 mm | - | - | - |
| 1777671917 | 27.78° C | 20% | 1018.9 hPa | 0 mm | - | - | - |
| 1777671317 | 26.67° C | 20% | 1019.2 hPa | 0 mm | - | - | - |
| 1777670717 | 27.22° C | 20% | 1019.4 hPa | 0 mm | - | - | - |
| 1777670117 | 26.67° C | 22% | 1019.6 hPa | 0 mm | - | - | - |
| 1777669517 | 26.11° C | 23% | 1019.6 hPa | 0 mm | - | - | - |
| 1777668917 | 26.11° C | 24% | 1019.5 hPa | 0 mm | - | - | - |
| 1777668317 | 26.67° C | 23% | 1019.8 hPa | 0 mm | - | - | - |
| 1777667717 | 26.11° C | 24% | 1019.6 hPa | 0 mm | - | - | - |
| 1777667117 | 26.67° C | 22% | 1020.1 hPa | 0 mm | - | - | - |
| 1777666517 | 26.11° C | 23% | 1020.1 hPa | 0 mm | - | - | - |
| 1777665917 | 25.56° C | 25% | 1020.1 hPa | 0 mm | - | - | - |
| 1777665317 | 25.56° C | 26% | 1020 hPa | 0 mm | - | - | - |
| 1777664717 | 25.56° C | 25% | 1020.5 hPa | 0 mm | - | - | - |
| 1777664117 | 25° C | 26% | 1020.2 hPa | 0 mm | - | - | - |
| 1777663517 | 24.44° C | 27% | 1020.4 hPa | 0 mm | - | - | - |
* Rain latest hour (hover to see other rain measurements)
** Current wind speed in m/s (hover to see current wind gust speed)